SRG924 EGHQ-EGJB

Flight info

Callsign SRG924
Flight time 0h 53m
Altitude 3000
Route GUR
Aircraft S92/L-SBDFGHIM1M3RYZ/LB1

Departure

Time 2026-04-22 14:45
Airport Cornwall Airport Newquay (EGHQ)

Arrival

Time 2026-04-22 15:38
Airport Guernsey Airport (EGJB)
Time Latitude Longitude Altitude Speed Heading
2026-04-22 14:37 50.44440 -4.99712 341 ft 0 kts 156°
2026-04-22 14:40 50.44437 -4.99710 341 ft 1 kts 160°
2026-04-22 14:40 50.44420 -4.99705 342 ft 3 kts 184°
2026-04-22 14:40 50.44397 -4.99761 341 ft 7 kts 250°
2026-04-22 14:40 50.44398 -4.99851 338 ft 10 kts 303°
2026-04-22 14:41 50.44436 -4.99946 332 ft 9 kts 304°
2026-04-22 14:41 50.44471 -5.00055 327 ft 10 kts 276°
2026-04-22 14:41 50.44449 -5.00132 325 ft 6 kts 240°
2026-04-22 14:41 50.44432 -5.00183 324 ft 4 kts 248°
2026-04-22 14:42 50.44421 -5.00230 323 ft 5 kts 249°
2026-04-22 14:42 50.44403 -5.00292 322 ft 6 kts 237°
2026-04-22 14:42 50.44378 -5.00313 322 ft 1 kts 179°
2026-04-22 14:42 50.44366 -5.00304 322 ft 2 kts 129°
2026-04-22 14:43 50.44364 -5.00300 322 ft 0 kts 121°
2026-04-22 14:43 50.44367 -5.00317 328 ft 0 kts 119°
2026-04-22 14:44 50.44360 -5.00293 348 ft 3 kts 127°
2026-04-22 14:44 50.44251 -5.00014 409 ft 56 kts 120°
2026-04-22 14:44 50.43998 -4.99357 503 ft 78 kts 112°
2026-04-22 14:44 50.43736 -4.98645 681 ft 80 kts 113°
2026-04-22 14:45 50.43374 -4.97893 805 ft 87 kts 116°
2026-04-22 14:45 50.43015 -4.97120 991 ft 90 kts 115°
2026-04-22 14:45 50.42647 -4.96295 1122 ft 95 kts 114°
2026-04-22 14:45 50.42249 -4.95450 1246 ft 97 kts 116°
2026-04-22 14:46 50.41862 -4.94589 1378 ft 98 kts 114°
2026-04-22 14:46 50.41454 -4.93719 1475 ft 99 kts 115°
2026-04-22 14:46 50.41044 -4.92864 1619 ft 98 kts 115°
2026-04-22 14:46 50.40636 -4.91997 1742 ft 98 kts 115°
2026-04-22 14:47 50.40236 -4.91156 1865 ft 97 kts 115°
2026-04-22 14:47 50.39833 -4.90299 1991 ft 96 kts 114°
2026-04-22 14:47 50.39453 -4.89456 2101 ft 96 kts 114°
2026-04-22 14:47 50.39066 -4.88593 2191 ft 95 kts 115°
2026-04-22 14:48 50.38689 -4.87756 2318 ft 95 kts 115°
2026-04-22 14:48 50.38307 -4.86910 2414 ft 94 kts 115°
2026-04-22 14:48 50.37933 -4.86081 2565 ft 93 kts 116°
2026-04-22 14:48 50.37564 -4.85253 2692 ft 93 kts 117°
2026-04-22 14:49 50.37190 -4.84421 2786 ft 93 kts 115°
2026-04-22 14:49 50.36819 -4.83601 2937 ft 91 kts 116°
2026-04-22 14:49 50.36444 -4.82764 3011 ft 98 kts 116°
2026-04-22 14:49 50.36029 -4.81836 3017 ft 108 kts 115°
2026-04-22 14:50 50.35593 -4.80859 3015 ft 111 kts 116°
2026-04-22 14:50 50.35139 -4.79849 3023 ft 117 kts 115°
2026-04-22 14:50 50.34664 -4.78786 3009 ft 120 kts 115°
2026-04-22 14:50 50.34180 -4.77707 3012 ft 122 kts 115°
2026-04-22 14:51 50.33687 -4.76612 3015 ft 124 kts 115°
2026-04-22 14:51 50.33190 -4.75509 3013 ft 125 kts 115°
2026-04-22 14:51 50.32686 -4.74387 3011 ft 126 kts 115°
2026-04-22 14:51 50.32182 -4.73272 3012 ft 126 kts 115°
2026-04-22 14:52 50.31678 -4.72154 3008 ft 126 kts 115°
2026-04-22 14:52 50.31171 -4.71027 3010 ft 126 kts 115°
2026-04-22 14:52 50.30660 -4.69896 3010 ft 127 kts 115°
2026-04-22 14:52 50.30152 -4.68769 3004 ft 128 kts 115°
2026-04-22 14:53 50.29639 -4.67635 3004 ft 127 kts 115°
2026-04-22 14:53 50.29129 -4.66509 3005 ft 127 kts 115°
2026-04-22 14:53 50.28615 -4.65373 3006 ft 127 kts 115°
2026-04-22 14:53 50.28108 -4.64250 3008 ft 127 kts 115°
2026-04-22 14:54 50.27589 -4.63102 3004 ft 128 kts 115°
2026-04-22 14:54 50.27082 -4.61984 2996 ft 128 kts 115°
2026-04-22 14:54 50.26627 -4.60979 2989 ft 128 kts 115°
2026-04-22 14:54 50.26114 -4.59849 2996 ft 128 kts 115°
2026-04-22 14:55 50.25600 -4.58717 3000 ft 127 kts 115°
2026-04-22 14:55 50.25092 -4.57597 3008 ft 127 kts 115°
2026-04-22 14:55 50.24576 -4.56457 3011 ft 127 kts 115°
2026-04-22 14:55 50.24073 -4.55348 3013 ft 126 kts 115°
2026-04-22 14:56 50.23559 -4.54217 3013 ft 127 kts 115°
2026-04-22 14:56 50.23045 -4.53086 3012 ft 127 kts 115°
2026-04-22 14:56 50.22538 -4.51971 3011 ft 128 kts 115°
2026-04-22 14:56 50.22023 -4.50841 3010 ft 128 kts 114°
2026-04-22 14:57 50.21505 -4.49699 3005 ft 128 kts 115°
2026-04-22 14:57 50.20992 -4.48576 3006 ft 127 kts 115°
2026-04-22 14:57 50.20480 -4.47448 3005 ft 127 kts 114°
2026-04-22 14:57 50.19967 -4.46321 3002 ft 128 kts 115°
2026-04-22 14:58 50.19452 -4.45191 2998 ft 128 kts 115°
2026-04-22 14:58 50.18940 -4.44070 3001 ft 127 kts 115°
2026-04-22 14:58 50.18424 -4.42938 3004 ft 127 kts 115°
2026-04-22 14:58 50.17909 -4.41811 3003 ft 127 kts 114°
2026-04-22 14:59 50.17396 -4.40684 3003 ft 128 kts 114°
2026-04-22 14:59 50.16880 -4.39557 3002 ft 128 kts 114°
2026-04-22 14:59 50.16360 -4.38416 2998 ft 128 kts 115°
2026-04-22 14:59 50.15843 -4.37284 2999 ft 128 kts 115°
2026-04-22 15:00 50.15331 -4.36164 3000 ft 128 kts 114°
2026-04-22 15:00 50.14813 -4.35028 2998 ft 128 kts 115°
2026-04-22 15:00 50.14296 -4.33901 3004 ft 128 kts 115°
2026-04-22 15:00 50.13775 -4.32762 3006 ft 128 kts 115°
2026-04-22 15:01 50.13258 -4.31631 3005 ft 129 kts 116°
2026-04-22 15:01 50.12729 -4.30480 3007 ft 129 kts 115°
2026-04-22 15:01 50.12207 -4.29339 3008 ft 130 kts 115°
2026-04-22 15:01 50.11682 -4.28195 3006 ft 130 kts 115°
2026-04-22 15:02 50.11152 -4.27040 3003 ft 130 kts 115°
2026-04-22 15:02 50.10629 -4.25898 3005 ft 130 kts 115°
2026-04-22 15:02 50.10106 -4.24758 3009 ft 130 kts 116°
2026-04-22 15:02 50.09579 -4.23613 3013 ft 130 kts 115°
2026-04-22 15:03 50.09052 -4.22467 3021 ft 130 kts 116°
2026-04-22 15:03 50.08525 -4.21320 3022 ft 130 kts 116°
2026-04-22 15:03 50.07999 -4.20176 3019 ft 131 kts 116°
2026-04-22 15:03 50.07464 -4.19013 3019 ft 131 kts 116°
2026-04-22 15:04 50.06932 -4.17860 3021 ft 131 kts 116°
2026-04-22 15:04 50.06401 -4.16707 3019 ft 131 kts 115°
2026-04-22 15:04 50.05873 -4.15562 3022 ft 131 kts 116°
2026-04-22 15:04 50.05344 -4.14417 3022 ft 131 kts 115°
2026-04-22 15:05 50.04808 -4.13253 3022 ft 131 kts 116°
2026-04-22 15:05 50.04281 -4.12109 3023 ft 131 kts 116°
2026-04-22 15:05 50.03748 -4.10956 3021 ft 132 kts 116°
2026-04-22 15:05 50.03211 -4.09795 3024 ft 132 kts 116°
2026-04-22 15:06 50.02681 -4.08647 3024 ft 132 kts 116°
2026-04-22 15:06 50.02139 -4.07475 3020 ft 132 kts 115°
2026-04-22 15:06 50.01604 -4.06319 3017 ft 132 kts 115°
2026-04-22 15:06 50.01072 -4.05169 3012 ft 132 kts 115°
2026-04-22 15:07 50.00533 -4.04002 3005 ft 132 kts 115°
2026-04-22 15:07 50.00001 -4.02854 3001 ft 132 kts 115°
2026-04-22 15:07 49.99469 -4.01704 3002 ft 131 kts 115°
2026-04-22 15:07 49.98930 -4.00543 3006 ft 131 kts 115°
2026-04-22 15:08 49.98396 -3.99395 3006 ft 132 kts 115°
2026-04-22 15:08 49.97865 -3.98246 3006 ft 132 kts 115°
2026-04-22 15:08 49.97326 -3.97085 3004 ft 132 kts 115°
2026-04-22 15:08 49.96791 -3.95932 2998 ft 132 kts 115°
2026-04-22 15:09 49.96254 -3.94777 2999 ft 132 kts 115°
2026-04-22 15:09 49.95712 -3.93611 2999 ft 131 kts 115°
2026-04-22 15:09 49.95186 -3.92478 3002 ft 131 kts 115°
2026-04-22 15:09 49.94652 -3.91331 3005 ft 131 kts 115°
2026-04-22 15:10 49.94116 -3.90176 3001 ft 131 kts 115°
2026-04-22 15:10 49.93582 -3.89030 3001 ft 131 kts 115°
2026-04-22 15:10 49.93053 -3.87894 2999 ft 131 kts 115°
2026-04-22 15:10 49.92522 -3.86753 3003 ft 131 kts 115°
2026-04-22 15:11 49.91986 -3.85605 3003 ft 131 kts 115°
2026-04-22 15:11 49.91452 -3.84460 3007 ft 131 kts 115°
2026-04-22 15:11 49.90917 -3.83316 3011 ft 131 kts 115°
2026-04-22 15:11 49.90385 -3.82178 3008 ft 131 kts 115°
2026-04-22 15:12 49.89850 -3.81032 3012 ft 131 kts 115°
2026-04-22 15:12 49.89314 -3.79885 3011 ft 131 kts 114°
2026-04-22 15:12 49.88777 -3.78732 3008 ft 132 kts 115°
2026-04-22 15:12 49.88242 -3.77588 3008 ft 131 kts 115°
2026-04-22 15:13 49.87708 -3.76444 3009 ft 131 kts 115°
2026-04-22 15:13 49.87170 -3.75293 3010 ft 131 kts 115°
2026-04-22 15:13 49.86632 -3.74145 3011 ft 131 kts 115°
2026-04-22 15:13 49.86100 -3.73008 3010 ft 132 kts 115°
2026-04-22 15:14 49.85554 -3.71844 3004 ft 132 kts 115°
2026-04-22 15:14 49.85021 -3.70705 3000 ft 133 kts 115°
2026-04-22 15:14 49.84473 -3.69538 3000 ft 133 kts 115°
2026-04-22 15:14 49.83934 -3.68389 3000 ft 132 kts 115°
2026-04-22 15:15 49.83389 -3.67229 2998 ft 132 kts 115°
2026-04-22 15:15 49.82848 -3.66076 2998 ft 132 kts 115°
2026-04-22 15:15 49.82310 -3.64932 2999 ft 132 kts 115°
2026-04-22 15:15 49.81766 -3.63776 2999 ft 132 kts 115°
2026-04-22 15:16 49.81227 -3.62633 3005 ft 132 kts 114°
2026-04-22 15:16 49.80686 -3.61479 3008 ft 132 kts 114°
2026-04-22 15:16 49.80140 -3.60318 3007 ft 132 kts 114°
2026-04-22 15:16 49.79602 -3.59175 3008 ft 132 kts 114°
2026-04-22 15:17 49.79062 -3.58025 3006 ft 132 kts 115°
2026-04-22 15:17 49.78522 -3.56880 3005 ft 132 kts 114°
2026-04-22 15:17 49.77977 -3.55724 3002 ft 132 kts 115°
2026-04-22 15:17 49.77433 -3.54573 3002 ft 132 kts 114°
2026-04-22 15:18 49.76895 -3.53432 3005 ft 132 kts 114°
2026-04-22 15:18 49.76350 -3.52275 3006 ft 132 kts 115°
2026-04-22 15:18 49.75813 -3.51137 3000 ft 132 kts 114°
2026-04-22 15:18 49.75268 -3.49984 2998 ft 132 kts 115°
2026-04-22 15:19 49.74724 -3.48833 3000 ft 133 kts 115°
2026-04-22 15:19 49.74181 -3.47685 3001 ft 133 kts 115°
2026-04-22 15:19 49.73631 -3.46528 3006 ft 132 kts 114°
2026-04-22 15:19 49.73093 -3.45389 3006 ft 132 kts 114°
2026-04-22 15:20 49.72549 -3.44242 3003 ft 132 kts 114°
2026-04-22 15:20 49.72003 -3.43088 2999 ft 133 kts 114°
2026-04-22 15:20 49.71455 -3.41930 2994 ft 133 kts 114°
2026-04-22 15:20 49.70910 -3.40779 2999 ft 133 kts 114°
2026-04-22 15:21 49.70362 -3.39624 2998 ft 132 kts 114°
2026-04-22 15:21 49.69816 -3.38472 2999 ft 132 kts 114°
2026-04-22 15:21 49.69276 -3.37333 2999 ft 133 kts 114°
2026-04-22 15:21 49.68731 -3.36185 3000 ft 133 kts 114°
2026-04-22 15:22 49.68184 -3.35035 2994 ft 133 kts 114°
2026-04-22 15:22 49.67634 -3.33880 2999 ft 133 kts 115°
2026-04-22 15:22 49.67079 -3.32710 2998 ft 134 kts 115°
2026-04-22 15:22 49.66525 -3.31548 3003 ft 134 kts 115°
2026-04-22 15:23 49.65976 -3.30391 3005 ft 134 kts 115°
2026-04-22 15:23 49.65423 -3.29232 3012 ft 133 kts 115°
2026-04-22 15:23 49.64874 -3.28079 3010 ft 133 kts 115°
2026-04-22 15:23 49.64321 -3.26921 3011 ft 133 kts 114°
2026-04-22 15:24 49.63777 -3.25781 3010 ft 134 kts 115°
2026-04-22 15:24 49.63219 -3.24612 3006 ft 134 kts 114°
2026-04-22 15:24 49.62663 -3.23448 3001 ft 134 kts 114°
2026-04-22 15:24 49.62114 -3.22297 3003 ft 135 kts 114°
2026-04-22 15:25 49.61554 -3.21122 2999 ft 135 kts 114°
2026-04-22 15:25 49.60990 -3.19943 2943 ft 138 kts 114°
2026-04-22 15:25 49.60419 -3.18745 2885 ft 141 kts 114°
2026-04-22 15:25 49.59827 -3.17508 2832 ft 142 kts 114°
2026-04-22 15:26 49.59248 -3.16294 2786 ft 143 kts 114°
2026-04-22 15:26 49.58660 -3.15067 2767 ft 142 kts 114°
2026-04-22 15:26 49.58067 -3.13828 2726 ft 143 kts 114°
2026-04-22 15:26 49.57478 -3.12598 2689 ft 143 kts 114°
2026-04-22 15:27 49.56891 -3.11371 2625 ft 142 kts 114°
2026-04-22 15:27 49.56302 -3.10145 2561 ft 141 kts 114°
2026-04-22 15:27 49.55722 -3.08939 2502 ft 140 kts 114°
2026-04-22 15:27 49.55149 -3.07747 2439 ft 138 kts 114°
2026-04-22 15:28 49.54572 -3.06547 2385 ft 138 kts 113°
2026-04-22 15:28 49.54007 -3.05366 2334 ft 138 kts 114°
2026-04-22 15:28 49.53432 -3.04170 2282 ft 140 kts 113°
2026-04-22 15:28 49.52852 -3.02961 2225 ft 143 kts 114°
2026-04-22 15:29 49.52258 -3.01728 2185 ft 143 kts 113°
2026-04-22 15:29 49.51663 -3.00491 2138 ft 144 kts 114°
2026-04-22 15:29 49.51068 -2.99256 2102 ft 144 kts 114°
2026-04-22 15:30 49.49865 -2.96760 2022 ft 146 kts 114°
2026-04-22 15:30 49.49253 -2.95498 1994 ft 146 kts 114°
2026-04-22 15:30 49.48651 -2.94257 1973 ft 145 kts 114°
2026-04-22 15:30 49.48045 -2.93019 1977 ft 144 kts 114°
2026-04-22 15:31 49.47443 -2.91790 1977 ft 143 kts 114°
2026-04-22 15:31 49.46854 -2.90592 1981 ft 142 kts 114°
2026-04-22 15:31 49.46256 -2.89379 1975 ft 141 kts 114°
2026-04-22 15:31 49.45657 -2.88167 1974 ft 141 kts 114°
2026-04-22 15:32 49.45084 -2.86967 1983 ft 140 kts 112°
2026-04-22 15:32 49.44525 -2.85730 1973 ft 140 kts 112°
2026-04-22 15:32 49.43984 -2.84502 1991 ft 139 kts 109°
2026-04-22 15:32 49.43512 -2.83208 1981 ft 139 kts 107°
2026-04-22 15:33 49.43064 -2.81886 1967 ft 136 kts 105°
2026-04-22 15:33 49.42800 -2.80592 2068 ft 124 kts 82°
2026-04-22 15:33 49.42868 -2.79229 1981 ft 129 kts 80°
2026-04-22 15:33 49.42931 -2.77869 1980 ft 127 kts 80°
2026-04-22 15:34 49.42992 -2.76525 1973 ft 126 kts 80°
2026-04-22 15:34 49.43053 -2.75190 1970 ft 124 kts 80°
2026-04-22 15:34 49.43114 -2.73868 1975 ft 119 kts 80°
2026-04-22 15:34 49.43171 -2.72645 1979 ft 112 kts 81°
2026-04-22 15:35 49.43224 -2.71474 1981 ft 107 kts 81°
2026-04-22 15:35 49.43280 -2.70350 1979 ft 104 kts 84°
2026-04-22 15:35 49.43279 -2.70012 1966 ft 105 kts 84°
2026-04-22 15:35 49.43300 -2.69536 1612 ft 120 kts 80°
2026-04-22 15:36 49.43334 -2.68226 1109 ft 117 kts 81°
2026-04-22 15:36 49.43343 -2.67119 1028 ft 94 kts 83°
2026-04-22 15:36 49.43325 -2.66158 1033 ft 85 kts 82°
2026-04-22 15:36 49.43372 -2.65274 888 ft 80 kts 77°
2026-04-22 15:37 49.43401 -2.64504 858 ft 66 kts 83°
2026-04-22 15:37 49.43399 -2.63765 787 ft 74 kts 81°
2026-04-22 15:37 49.43433 -2.62955 657 ft 75 kts 81°
2026-04-22 15:37 49.43441 -2.62204 559 ft 67 kts 81°
2026-04-22 15:38 49.43461 -2.61531 423 ft 56 kts 83°
2026-04-22 15:38 49.43482 -2.60704 336 ft 26 kts 90°
2026-04-22 15:38 49.43490 -2.60466 343 ft 21 kts 90°
2026-04-22 15:39 49.43493 -2.60239 342 ft 21 kts 90°
2026-04-22 15:39 49.43499 -2.60060 334 ft 5 kts 91°
2026-04-22 15:39 49.43499 -2.60041 323 ft 4 kts 90°
2026-04-22 15:39 49.43499 -2.59971 325 ft 7 kts 90°
2026-04-22 15:40 49.43496 -2.59891 327 ft 5 kts 110°
2026-04-22 15:40 49.43470 -2.59864 327 ft 4 kts 169°
2026-04-22 15:40 49.43443 -2.59861 327 ft 2 kts 178°
2026-04-22 15:40 49.43424 -2.59861 327 ft 4 kts 179°
2026-04-22 15:41 49.43397 -2.59861 327 ft 4 kts 177°
2026-04-22 15:41 49.43387 -2.59860 327 ft 0 kts 179°
2026-04-22 15:41 49.43374 -2.59860 328 ft 4 kts 178°
2026-04-22 15:41 49.43344 -2.59893 327 ft 6 kts 258°
2026-04-22 15:42 49.43325 -2.59931 326 ft 4 kts 184°
2026-04-22 15:42 49.43296 -2.59928 327 ft 2 kts 165°
2026-04-22 15:42 49.43291 -2.59905 328 ft 3 kts 84°
2026-04-22 15:42 49.43293 -2.59870 328 ft 2 kts 88°
2026-04-22 15:43 49.43296 -2.59846 328 ft 4 kts 138°
2026-04-22 15:43 49.43290 -2.59860 328 ft 0 kts 280°